Flag for U.S.A. Weather past 2 weeks in Concord, California, U.S.A.

Now
90 °F

Sunny.


Feels Like: 88 °F
Forecast: 62 / 87 °F
Wind: 12 mph from West

Location: Buchanan Field

Current Time: Jul 3, 2015 at 5:44:18 PM

Latest Report: Jul 3, 2015 at 4:53 PM


Visibility: 10 mi

Pressure: 29.80 "Hg

Humidity: 28%

Dew point: 53 °F

Location of ConcordLocation

Historic Weather in Concord — Graph

°F

Concord temperature yesterday

Maximum temperature yesterday: 88 °F (at 12:53 PM)
Minimum temperature yesterday: 65 °F (at 11:53 PM)
Average temperature yesterday: 76 °F

Past Weeks' High & Low Weather Summary

 TemperatureHumidityPressure
High105 °F (Jun 30, 5:53 PM)83% (Jun 20, 5:53 AM)30.00 "Hg (Jun 20, 5:53 AM)
Low56 °F (Jun 19, 5:53 AM)6% (Jun 30, 5:53 PM)29.72 "Hg (Jun 30, 5:53 PM)
Average74 °F48%29.87 "Hg
* Reported Jun 18 3:53 PM — Jul 3 3:53 PM, Concord, Weather by CustomWeather, © 2015

Note: Actual official high and low records may vary slightly from our data, if they occured in-between our weather recording intervals... More about our weather records

Advertising

Concord weather history for previous 24 hours

 ConditionsComfort  
Time TempWeatherWind HumidityBarometerVisibility
3:53 PM
Fri, Jul 3
90 °FSunny.15 mph29%29.80 "Hg10 mi
2:53 PM91 °FSunny.17 mph25%29.81 "Hg10 mi
1:53 PM90 °FSunny.17 mph26%29.83 "Hg10 mi
12:53 PM88 °FSunny.14 mph30%29.85 "Hg10 mi
11:53 AM83 °FSunny.12 mph38%29.87 "Hg10 mi
10:53 AM78 °FSunny.8 mph45%29.88 "Hg10 mi
9:53 AM72 °FSunny.12 mph57%29.89 "Hg10 mi
8:53 AM69 °FSunny.13 mph61%29.90 "Hg10 mi
7:53 AM65 °FSunny.12 mph70%29.89 "Hg10 mi
6:53 AM62 °FSunny.12 mph78%29.90 "Hg10 mi
5:53 AM62 °FClear.7 mph78%29.89 "Hg10 mi
4:53 AM63 °FClear.9 mph75%29.86 "Hg10 mi
3:53 AM63 °FClear.6 mph75%29.85 "Hg10 mi
2:53 AM64 °FClear.10 mph75%29.85 "Hg10 mi
1:53 AM66 °FClear.6 mph65%29.85 "Hg10 mi
12:53 AM66 °FClear.8 mph68%29.88 "Hg10 mi
11:53 PM
Thu, Jul 2
65 °FClear.9 mph70%29.89 "Hg10 mi
10:53 PM66 °FClear.9 mph65%29.88 "Hg10 mi
9:53 PM67 °FPassing clouds.9 mph63%29.88 "Hg10 mi
8:53 PM70 °FSunny.9 mph53%29.86 "Hg10 mi
7:53 PM75 °FOvercast.5 mph47%29.85 "Hg10 mi
6:53 PM77 °FOvercast.8 mph44%29.84 "Hg10 mi
5:53 PM85 °FSunny.10 mph29%29.83 "Hg10 mi
Weather by CustomWeather, © 2015

See weather overviewHow to use our weather pages